< < Back
Terminal Aerodrome Forecast


Current Version              Previous Versions:   1  2  3  4  5  6  7  8  9  

Terminal Aerodrome Forecast

020
FTUS42 KGSP 011400 AAA
TAFHKY
TAF AMD
KHKY 011400Z 0114/0212 VRB03KT P6SM SCT008
      TEMPO 0114/0115 OVC008
     FM011500 22003KT P6SM SCT025
     FM011600 22005KT P6SM FEW060 SCT250
     FM020000 22003KT P6SM SCT060
     FM020900 30003KT 6SM BR SCT060=



Latest METAR

026
SAUS70 KWBC 020300 RRC
MTRHKY
METAR KHKY 020253Z AUTO 00000KT 10SM CLR 25/20 A3002 RMK AO2 SLP142
T02500200 53013


USA.gov is the U.S. government's official web portal to all federal, state and local government web resources and services.